Regional Weather Roundup
Issued by NWS Kansas City/Pleasant Hill, MO

Home | Current Version | Previous Version | Text Only | Print | Product List | Glossary On
Versions: 1 2 3 4 5 6 7 8 9 10 11 12 13 14 15 16 17 18 19 20 21 22 23 24 25 26 27 28 29 30 31 32 33 34 35 36 37 38 39 40 41 42 43 44 45 46 47 48 49 50
000
ASUS43 KEAX 311710
RWREAX

WEATHER ROUNDUP FOR EASTERN KANSAS AND NORTHWEST MISSOURI
NATIONAL WEATHER SERVICE KANSAS CITY/PLEASANT HILL MO
1200 PM CDT MON AUG 31 2015

KSZ040-057-103>105-MOZ028-029-037-043-311800-
...KANSAS CITY METROPOLITAN AREA...

CITY           SKY/WX    TMP DP  RH WIND       PRES   REMARKS
K.C. INTL      MOSUNNY   85  71  63 S8        30.00S HX  90
K.C. DOWNTOWN  SUNNY     86  71  60 S8        29.99S HX  91
LEES SUMMIT    SUNNY     83  69  62 S10       30.02S
OLATHE - IXD   SUNNY     83  71  67 S10       30.02S
OLATHE - OJC   SUNNY     81  70  69 S9        30.01S
LAWRENCE       MOSUNNY   85  71  63 SE8       29.99F HX  90

$$

MOZ001>008-011>017-020>025-030>033-038>040-044>046-053-054-311800-
...NORTHERN AND CENTRAL MISSOURI...

CITY           SKY/WX    TMP DP  RH WIND       PRES   REMARKS
ST. JOSEPH     MOSUNNY   83  73  72 S5        29.99S
MOSBY          PTSUNNY   82  72  69 S6        30.00S
WARRENSBURG    SUNNY     82  68  61 S9        30.01F
WHITEMAN AFB   MOSUNNY   86  70  59 SW13      30.01F HX  90
CLINTON        SUNNY     84  72  65 S8        30.03F
SEDALIA        SUNNY     87  70  56 S14       30.04F HX  92
WARSAW         NOT AVBL
CHILLICOTHE      N/A     85  74  69 S8        30.01S HX  92
KIRKSVILLE     SUNNY     86  69  56 S13       30.03F HX  90

$$

MOZ041-047>049-056>058-063>065-088>090-097-311800-
...EASTERN AND SOUTHERN MISSOURI...

CITY           SKY/WX    TMP DP  RH WIND       PRES   REMARKS
ST. LOUIS INTL PTSUNNY   85  70  60 VRB5      30.07F
SPIRIT OF STL  SUNNY     85  73  67 CALM      30.05F HX  91
COLUMBIA       SUNNY     85  72  65 SE6       30.05F HX  91
JEFFERSON CITY SUNNY     86  69  56 S9        30.04S HX  90
ROLLA          SUNNY     86  69  56 S9        30.07S HX  90
OSAGE BEACH    SUNNY     88  68  51 S7        30.06F HX  91
SPRINGFIELD    SUNNY     84  69  60 S13       30.07S
BRANSON        SUNNY     84  68  58 SW7       30.11S
JOPLIN         SUNNY     85  69  58 S10       30.04F
WEST PLAINS    SUNNY     83  69  62 S6        30.12F

$$

IAZ060-094-KSZ022-034>040-054-083-096-NEZ052-066-093-311800-
...KANSAS...SOUTHEAST NEBRASKA AND IOWA...

CITY           SKY/WX    TMP DP  RH WIND       PRES   REMARKS
TOPEKA         MOSUNNY   84  69  60 S7        29.98F
MANHATTAN      SUNNY     86  67  52 S13       29.96F
EMPORIA        SUNNY     83  70  64 SE10      29.99S
CHANUTE        SUNNY     83  69  62 S9        30.01S
WICHITA        MOSUNNY   84  68  58 S9        29.97S
OMAHA          MOSUNNY   80  70  71 S8        29.97S
LINCOLN        MOSUNNY   82  69  64 S13       29.96F
FALLS CITY     PTSUNNY   84  71  65 S9        29.98S
LAMONI         PTSUNNY   83  74  74 S10       30.01S
DES MOINES     MOSUNNY   83  72  69 S9        29.99F

$$



USA.gov is the U.S. government's official web portal to all federal, state and local government web resources and services.